Location: Wagman Observatory
(40.6260°N, 79.8130°W)
Time: 09:21:42
(UTC-05:00)

Daily predictions for brighter satellites

Satellite Brightness Start Highest point End
(mag) Time Altitude Azimuth Time Altitude Azimuth Time Altitude Azimuth
Cosmos 1844 3.7 17:13:45 10° SSW 17:19:18 80° ESE 17:24:53 10° NNE
Abrixas 4.0 17:18:05 10° NW 17:20:27 21° NNE 17:22:49 10° ENE
Cosmos 1536 3.7 17:16:49 10° NNW 17:20:49 55° W 17:24:48 10° S
OTV 4 3.6 17:24:08 10° SW 17:25:25 12° SSW 17:26:42 10° S
IRS-1A Rocket 4.4 17:22:14 10° SSE 17:27:44 82° WSW 17:33:17 10° NNW
Cosmos 1346 Rocket 4.0 17:25:55 10° SE 17:28:59 23° E 17:32:03 10° NE
ISS -1.4 17:29:22 10° WNW 17:32:01 22° NNW 17:34:39 10° NNE
Cosmos 1544 Rocket 3.5 17:29:15 10° N 17:33:44 75° E 17:38:12 10° SSE
Cosmos 2278 Rocket 2.3 17:29:00 10° S 17:34:34 64° ESE 17:40:10 10° NNE
PAYLOAD A 4.0 17:29:48 10° SSE 17:34:36 88° WSW 17:39:39 10° NNW
USA 116 4.5 17:30:40 10° NNE 17:36:02 70° E 17:41:08 10° S
Cosmos 1975 Rocket 4.2 17:33:33 10° SSW 17:37:40 45° WNW 17:41:51 10° N
COSMO-SKYMED 1 3.8 17:34:30 10° NE 17:37:56 22° E 17:41:21 10° SSE
SMAP 3.0 17:34:34 10° SSE 17:39:10 66° ENE 17:43:47 10° N
SL-08 R/B 4.5 17:34:25 10° N 17:40:50 76° E 17:47:04 10° SSE
USA 234 3.4 17:35:35 10° NE 17:42:09 82° NW 17:48:40 10° SW
BREEZE M DEB (TANK) 3.7 17:44:50 10° NW 17:47:47 31° NNE 17:53:28 13° E
SL-8 R/B 3.8 17:43:43 10° WSW 17:48:28 70° NNW 17:52:28 15° NE
Genesis I 3.3 17:47:03 10° NNW 17:50:54 50° NE 17:54:41 10° SE
Cosmos 1536 Rocket 3.5 17:49:48 10° S 17:54:15 81° E 17:58:45 10° N
Nadezhda 3 Rocket 4.3 17:49:53 10° SSE 17:55:44 46° E 18:01:39 10° NNE
Cosmos 1833 Rocket 3.3 17:52:29 10° N 17:57:34 33° ENE 18:02:36 10° ESE
Cosmos 1025 Rocket 4.4 17:55:23 10° SE 17:58:32 20° E 17:59:27 19° ENE
NOSS 3-3 (A) 4.1 17:52:40 10° SW 17:58:51 85° WNW 18:05:33 10° NE
NOSS 3-3 (C) 4.1 17:52:46 10° SW 17:58:57 86° NW 18:05:39 10° NE
Cosmos 2082 Rocket 2.6 17:55:01 10° N 18:00:22 41° ENE 18:05:42 10° SE
Cosmos 921 Rocket 3.6 17:56:58 10° SSE 18:00:48 34° E 18:03:30 17° NE
EP 1 4.4 17:59:07 10° SSW 18:01:42 51° ESE 18:02:42 29° ENE
YAOGAN 1 2.8 17:58:36 10° S 18:02:55 75° WSW 18:07:16 10° NNW
Cosmos 1238 Rocket 3.3 18:00:07 10° SSW 18:02:56 43° W 18:05:55 10° N
SPOT 3 Rocket 3.9 17:58:25 10° S 18:03:35 71° WSW 18:08:46 10° NNW
MSX 3.8 17:58:07 10° SSE 18:03:50 76° ENE 18:09:35 10° N
CZ-4 R/B 2.6 18:00:27 10° S 18:04:28 47° W 18:08:29 10° NNW
Cosmos 1975 2.8 18:01:35 10° N 18:05:41 87° E 18:09:42 10° S
Cosmos 1743 3.4 18:02:33 10° NNE 18:06:04 31° ENE 18:09:31 10° SE
ATLAS 2AS CENTAUR R/B 3.6 18:00:01 10° NW 18:07:54 60° WSW 18:15:12 10° SSE
GEOS 3 Rocket 4.2 18:06:32 16° E 18:09:56 33° NE 18:14:29 10° NNW
COSMOS 2487 2.4 18:06:34 10° NNW 18:10:09 66° ENE 18:13:42 10° SSE
Cosmos 1500 3.1 18:06:58 10° N 18:10:49 80° E 18:14:40 10° S
Cosmos 1484 Rocket 2.7 18:07:42 10° SSE 18:11:22 56° ENE 18:15:02 10° N
CZ-2C R/B 3.2 18:07:14 10° S 18:12:09 58° W 18:17:13 10° NNW
MONITOR-E 4.1 18:10:08 10° SSE 18:13:18 80° ENE 18:16:31 10° N
Meteor 1-28 Rocket 3.9 18:15:53 30° ENE 18:16:31 32° E 18:19:56 10° SSE
Tiangong 1 0.9 18:16:12 10° WSW 18:19:13 78° SSE 18:19:54 49° E
COSMOS 2441 4.3 18:14:38 10° SSE 18:19:30 89° E 18:24:26 10° NNW
Meteor 1-13 Rocket 4.2 18:14:16 10° S 18:19:51 66° E 18:25:37 10° NNE
SKYMED 2 3.4 18:21:58 11° NNE 18:26:12 78° ESE 18:30:32 10° S
IDEFIX/ARIANE 42P 3.9 18:23:42 10° S 18:28:36 42° W 18:33:32 10° NNW
FALCON 9 R/B 4.0 18:02:55 10° WSW 18:30:24 62° S 18:35:31 23° ESE
BREEZE-M R/B 4.4 18:21:15 10° WSW 18:31:53 64° NNW 18:34:45 28° NE
Delta 2 Rocket 4.2 18:28:31 10° WSW 18:32:01 37° S 18:33:18 29° SE
Meteor 2-4 Rocket 3.7 18:31:03 10° SSE 18:36:13 50° E 18:38:55 27° NNE
Okean 1-7 Rocket 3.5 18:31:49 10° S 18:36:20 84° E 18:39:55 16° N
Meteor 2-9 Rocket 4.3 18:32:45 10° N 18:37:59 45° ENE 18:43:04 10° SSE
Cosmos 1934 Rocket 3.9 18:41:31 10° N 18:47:39 60° E 18:53:50 10° SSE
Cosmos 1535 Rocket 4.4 18:45:01 10° N 18:51:21 81° E 18:57:33 10° S
NOSS 2-1 (D) 3.4 18:49:06 10° SW 18:52:55 74° NW 18:53:30 60° N
NOSS 2-1 (C) 3.4 18:49:46 10° SW 18:53:36 75° NW 18:54:09 62° N
Abrixas 4.4 18:53:24 10° WNW 18:54:52 26° NW 18:54:52 26° NW
Meteor 2-8 Rocket 4.3 18:57:20 10° S 19:03:21 72° E 19:06:35 29° NNE
BREEZE M DEB (TANK) 2.8 19:02:23 10° WSW 19:08:45 56° NW 19:08:45 56° NW
NOSS 2-1 (E) 4.0 19:08:29 10° SW 19:12:13 53° NW 19:12:13 53° NW
COSMO-SKYMED 1 4.3 19:10:34 12° N 19:14:06 31° WNW 19:17:55 10° SW
NOAA 12 4.3 19:10:06 10° S 19:15:21 68° WSW 19:20:37 10° NNW
Cosmos 1821 Rocket 4.3 19:10:38 10° NNW 19:16:39 65° W 19:22:40 10° S
Cosmos 2278 Rocket 4.4 19:15:02 10° W 19:19:08 20° NW 19:23:16 10° N
USA 234 4.5 19:22:16 25° NNE 19:24:35 31° NNW 19:30:10 10° W
Cosmos 1605 Rocket 3.8 19:20:57 10° N 19:27:17 85° E 19:33:29 10° S
CZ-3B DEB 4.0 19:23:09 10° WNW 19:28:21 37° N 19:31:38 30° NNE
Cosmos 2056 Rocket 3.8 19:27:17 10° SSW 19:32:37 64° WNW 19:32:41 64° WNW
Cosmos 1833 Rocket 4.2 19:36:23 10° NW 19:41:27 35° WSW 19:46:28 10° SSW
NOSS 3-4 (A) 3.8 19:36:49 10° NW 19:43:53 78° WSW 19:45:08 63° S
NOSS 3-4 (C) 3.8 19:36:55 10° NW 19:44:00 79° WSW 19:45:08 65° S
Cosmos 2082 Rocket 4.1 19:39:29 10° NW 19:44:14 28° WSW 19:48:58 10° SSW
GEOS 3 Rocket 4.5 19:47:42 44° SW 19:47:51 44° WSW 19:52:44 10° NW
